This is the latest recevied weather packets stored in our database for station/object DB0TBG. If no packets are shown the sender has not sent any weather packets the latest 10 day(s).
| Time | Temp. | Humidity | Pressure | Rain* | Wind** | Luminosity | Snow |
|---|---|---|---|---|---|---|---|
| 1777641127 | 21.67° C | 19% | 984 hPa | 0 mm | 0 m/s | - | - |
| 1777640527 | 21.11° C | 22% | 984 hPa | 0 mm | 0 m/s | - | - |
| 1777639928 | 21.67° C | 22% | 984 hPa | 0 mm | 0 m/s | - | - |
| 1777639326 | 22.22° C | 21% | 984 hPa | 0 mm | 0 m/s | - | - |
| 1777638727 | 22.22° C | 21% | 984 hPa | 0 mm | 0 m/s | - | - |
| 1777638120 | 21.67° C | 19% | 985 hPa | 0 mm | 0 m/s | - | - |
| 1777636916 | 20.56° C | 22% | 985 hPa | 0 mm | 0 m/s | - | - |
| 1777636317 | 21.11° C | 23% | 985 hPa | 0 mm | 0 m/s | - | - |
| 1777635714 | 20.56° C | 23% | 985 hPa | 0 mm | 0 m/s | - | - |
| 1777634516 | 20.56° C | 23% | 985 hPa | 0 mm | 0 m/s | - | - |
| 1777633914 | 20.56° C | 23% | 985 hPa | 0 mm | 0 m/s | - | - |
| 1777633315 | 20.56° C | 23% | 985 hPa | 0 mm | 0 m/s | - | - |
| 1777632713 | 20° C | 23% | 985 hPa | 0 mm | 0 m/s | - | - |
| 1777632110 | 20.56° C | 23% | 985 hPa | 0 mm | 0 m/s | - | - |
| 1777631511 | 20.56° C | 23% | 986 hPa | 0 mm | 0 m/s | - | - |
| 1777630912 | 20° C | 24% | 986 hPa | 0 mm | 0 m/s | - | - |
| 1777630307 | 19.44° C | 27% | 986 hPa | 0 mm | 0 m/s | - | - |
| 1777629697 | 18.33° C | 26% | 986 hPa | 0 mm | 0 m/s | - | - |
| 1777629098 | 18.33° C | 26% | 986 hPa | 0 mm | 0 m/s | - | - |
| 1777628494 | 18.33° C | 27% | 986 hPa | 0 mm | 0 m/s | - | - |
| 1777627894 | 18.33° C | 27% | 986 hPa | 0 mm | 0 m/s | - | - |
| 1777627295 | 18.33° C | 26% | 986 hPa | 0 mm | 0 m/s | - | - |
| 1777626694 | 18.33° C | 32% | 986 hPa | 0 mm | 0 m/s | - | - |
| 1777626092 | 17.22° C | 30% | 986 hPa | 0 mm | 0 m/s | - | - |
| 1777625491 | 16.67° C | 29% | 986 hPa | 0 mm | 0 m/s | - | - |
* Rain latest hour (hover to see other rain measurements)
** Current wind speed in m/s (hover to see current wind gust speed)